Verkhneberyozovskiy

Kazakhstan     50˚16′31″N   82˚12′55″E
temp.,
°C
wind,
m/s
gust,
m/s
humid.,
%
clouds,
%
prec.,
mm/h
press.,
hPa
HPBL,
m
28 november, sat
sat2800:00−10˚ese11680 0.0 103621
03:00−11˚ene11674 0.0 103521
06:00−11˚ene116923 0.0 103521
09:00−10˚e116818 0.0 103321
12:00−6˚ene117259 0.0 103240
15:00−5˚ene1271100 0.0 103121
18:00−6˚sse2271100 0.0 103321
21:00−6˚ese3595100 0.6 1033162
29 november, sun
sun2900:00−3˚sse61297100 4.1 1035491
03:00−6˚se3593100 0.5 1036127
06:00−5˚se41089100 0.6 1038324
09:00−6˚se3587100 0.0 1039130
12:00−4˚se398791 0.0 1038386
15:00−4˚se268793 0.0 1038202
18:00−5˚ese338595 0.0 104049
21:00−6˚ese238574 0.0 104132
30 november, mon
mon3000:00−8˚e118252 0.0 104221
03:00−10˚ne118312 0.0 104321
06:00−11˚nnw118545 0.0 104421
09:00−12˚wnw119125 0.0 104521
12:00−10˚w229517 0.0 1046125
15:00−11˚wnw229663 0.0 104664
18:00−14˚w129872 0.1 104829
21:00−14˚wsw1197100 0.1 104820
1 december, tue
tue100:00−15˚wsw1197100 0.2 104920
03:00−16˚w0198100 0.1 104920
06:00−17˚w0198100 0.1 105020
09:00−18˚sw0198100 0.1 105120
12:00−15˚sw1193100 0.1 1050182
15:00−16˚w1196100 0.0 105020
18:00−19˚sw009992 0.1 105120
21:00−19˚se119998 0.0 105220
2 december, wed
wed200:00−19˚se119999 0.1 105120
03:00−20˚se1110096 0.0 105220
06:00−21˚ese119983 0.0 105220
09:00−20˚sse11973 0.0 105220
12:00−17˚sse01922 0.0 105189
15:00−17˚nnw00930 0.0 105020
18:00−19˚ne11910 0.0 104920
21:00−19˚e11870 0.0 104820